Terug naar catalogus

NOAA 16 DEB

ActiefSSO
NORAD 41351·DEBRIS·🇺🇸 United States

Gelanceerd Sep 21, 2000 vanaf Vandenberg Space Force Base

Loading…

Volgende Passages (komende 24 uur)

TLE

VersSource: Space-Track

Epoch: Sep 13, 2026, 07:38 UTC

1 41351U 00055HU  26256.31837136  .00002005  00000-0  85119-3 0  9991
2 41351  98.6179 288.9604 0008045 249.7438 110.2878 14.26430518550952

Volg NOAA 16 DEB in realtime met AllMySat

Download on the App Store